Simultaneous Nadir Overpasses (SNOs) Predictions

Prediction of SNOs between GOES-16 and AQUA Satellite Orbit:

Table of predicted SNOs for the next 14.0 days since TLE Epoch: 10/25/2025
Index Date Time (GOES-16) GOES-16 Lat,Lon AQUA Lat,Lon Distance(km) Time Diff (sec)
1 10/26/2025 09:50:43 0.01,-104.65 -0.21,-103.53 127.10 80
2 10/26/2025 22:09:51 -0.01,-104.61 -0.79,-108.15 402.45 80
3 10/28/2025 21:51:34 -0.01,-104.56 0.31,-103.01 175.44 80
4 10/29/2025 10:10:34 0.02,-104.57 0.64,-107.61 345.40 80
5 10/31/2025 09:46:56 0.01,-104.51 -0.45,-102.47 232.71 80
6 10/31/2025 22:06:02 -0.02,-104.47 -0.58,-107.08 296.88 80
7 11/02/2025 21:47:43 -0.02,-104.42 0.52,-101.94 282.25 80
8 11/03/2025 10:06:42 0.02,-104.43 0.47,-106.52 237.89 80
9 11/05/2025 09:43:02 0.03,-104.37 -0.63,-101.38 341.11 80
10 11/05/2025 22:02:09 -0.04,-104.33 -0.36,-105.99 188.73 80
11 11/07/2025 21:43:47 -0.04,-104.27 0.67,-100.83 390.49 80
